Location: Mountain Grove
(34.0887°N, 86.6172°W)
Time: 21:02:25
(UTC+00:00)

Cosmos 1975 Rocket - Pass Details

Date: 14 July 2020
Orbit: 605 x 633 km, 82.5° (Epoch: 08 August)

Event Time Altitude Azimuth Distance (km) Brightness Sun altitude
Rises 10:04:54 0° 341° (NNW) 2,908 6.7 -8.2°
Reaches altitude 10° 10:07:18 10° 332° (NNW) 2,002 5.7 -7.8°
Maximum altitude 10:11:14 32° 269° (W) 1,085 3.9 -7.1°
Drops below altitude 10° 10:15:10 10° 207° (SSW) 2,002 5.2 -6.4°
Sets 10:17:34 0° 197° (SSW) 2,907 6.1 -6.0°
